Miscellaneous Local Product
Issued by NWS North Platte, NE

Home | Current Version | Previous Version | Text Only | Print | Product List | Glossary On
Versions: 1 2 3 4 5 6 7 8 9 10 11 12 13 14 15 16 17 18 19 20 21 22 23 24 25 26 27 28 29 30 31 32 33 34 35 36 37 38 39 40 41 42 43 44 45 46 47 48 49 50
000
AXUS43 KLBF 281910
MISLBF


WESTERN AND NORTH CENTRAL NEBRASKA HOURLY WEATHER ROUNDUP
NATIONAL WEATHER SERVICE NORTH PLATTE NE
200 PM CDT TUE JUL 28 2015

***STATIONS NOT REPORTING VARIABLES SUCH AS SKY/WEATHER OR
PRESSURE ARE PROVIDED BY THE NEBRASKA DEPARTMENT OF
ROADS...RAWS...AND APRS NETWORKS...AND ARE NOT UNDER
NATIONAL WEATHER SERVICE QUALITY CONTROL***

...OBSERVATIONS IN AND NEAR THE EASTERN PANHANDLE OF NEBRASKA...

CITY           SKY/WX    TMP DP  RH WIND       PRES   REMARKS
PINE RIDGE     SUNNY     74  42  31 W18G24    30.07S
CHADRON        SUNNY     77  39  25 NW14G22   30.07F
ALLIANCE       SUNNY     78  36  21 NW16G26   30.10R
SIDNEY         SUNNY     80  32  17 N16G24    30.13S
BIG SPRINGS      N/A     79  44  28 N6          N/A
$$

...OBSERVATIONS IN NORTH CENTRAL NEBRASKA...

CITY           SKY/WX    TMP DP  RH WIND       PRES   REMARKS
VALENTINE      SUNNY     78  44  29 MISG      30.02S
THEDFORD       SUNNY     80  49  32 NW13G18   30.05S
AINSWORTH      SUNNY     79  46  31 NW10G17   30.03R
O`NEILL        SUNNY     77  56  48 NW16      29.99S
ORD            MOSUNNY   79  52  38 N14       29.96S
BROKEN BOW     SUNNY     81  52  36 N15G23    30.01S
SPRINGVIEW       N/A     79  51  37 NW13G22     N/A
CHAMBERS         N/A     79  54  41 NW6         N/A
EWING            N/A     77  61  57 N7G14       N/A
$$

...OBSERVATIONS IN SOUTHWEST NEBRASKA AND FAR NORTHEAST COLORADO...

CITY           SKY/WX    TMP DP  RH WIND       PRES   REMARKS
WRAY           FAIR      82  39  21 N13G20    30.10S
HOLYOKE        FAIR      84  34  16 N12G22    30.10S
IMPERIAL       SUNNY     82  41  23 N14G23    30.07S
OGALLALA       SUNNY     79  39  24 N15G22    30.08S
NORTH PLATTE   SUNNY     82  44  26 N15       30.02S
MCCOOK         SUNNY     85  54  34 NE16      30.01S
LEXINGTON      MOSUNNY   79  52  39 N10G17    30.01R
PAXTON           N/A     82  44  26 NW12        N/A
BRADY            N/A     81  54  39 CALM        N/A
CALLAWAY         N/A     79  60  51 N12         N/A
$$

...NORTH PLATTE AREA...

CITY           SKY/WX    TMP DP  RH WIND       PRES   REMARKS
AIRPORT        SUNNY     82  44  26 N15       30.02S
DOWNTOWN         N/A     82  46  27 N8G15       N/A
HILLCREST        N/A     82  43  24 N15G24      N/A
$$

...SOME WEATHER OBSERVATIONS FROM AROUND THE REGION...

CITY           SKY/WX    TMP DP  RH WIND       PRES   REMARKS
DENVER         MOSUNNY   81  38  21 E14G22    30.15R
LARAMIE        SUNNY     71  26  18 W18G24    30.27S
CHEYENNE       SUNNY     77  29  17 N16G26    30.18F
SCOTTSBLUFF    SUNNY     77  33  20 W13       30.12S
RAPID CITY     SUNNY     75  42  30 W21G30    30.02S
PIERRE         SUNNY     80  46  30 W21G33    29.90S
WINNER         FAIR      79  47  32 NW22G29   29.98S
SIOUX FALLS    MOSUNNY   78  65  63 NW13G21   29.88R
OMAHA          PTSUNNY   89  74  60 S13       29.85S HX  98
GRAND ISLAND   CLOUDY    82  65  56 N15       29.95R
KANSAS CITY    PTSUNNY   93  75  55 S17G23    29.89F HX 104
WICHITA        SUNNY     97  70  41 S22G29    29.86F HX 103
HAYS           SUNNY     88  66  48 N22G29    29.90R HX  90
LIBERAL        SUNNY     88  61  40 N18G24    29.97S
GOODLAND       SUNNY     82  41  23 N17G26    30.08R
$$



USA.gov is the U.S. government's official web portal to all federal, state and local government web resources and services.